ARIANE 40 R/B

Last updated on Thu Oct 23 2025 00:02:19 GMT+0000 (Coordinated Universal Time)

1 22830U 93061H 25295.42948578 .00000409 00000+0 16595-3 0 9995 2 22830 98.5138 1.8781 0010157 339.3729 20.7044 14.32744409674301
UTC large
Height (km)
Speed (km/s)
/
Latitude / Longitude
Inclination (degrees)
Orbital Period (minutes)
Azimuth
Elevation
Range (km)
Doppler Factor

Next 0 passes for location: London (51.5072 / 0.1276)

Sorry there are no passes over London.